Regional Weather Roundup
Issued by NWS

Home | Current Version | Previous Version | Graphics & Text | Print | Product List | Glossary On
Versions: 1 2 3 4 5 6 7 8 9 10 11 12 13 14 15 16 17 18 19 20 21 22 23 24 25 26 27 28 29 30 31 32 33 34 35 36 37 38 39 40 41 42 43 44 45 46 47 48 49 50
145
ASUS43 KMPX 272210
RWRMN
WEATHER ROUNDUP FOR MINNESOTA
NATIONAL WEATHER SERVICE TWIN CITIES/CHANHASSEN MN
500 PM CDT SUN MAY 27 2018


NOTE: "FAIR" INDICATES FEW OR NO CLOUDS BELOW 12,000 FEET WITH NO
SIGNIFICANT WEATHER AND/OR OBSTRUCTIONS TO VISIBILITY. N/A MEANS
CURRENT SKY AND/OR WEATHER CONDITIONS ARE NOT AVAILABLE.

MNZ060>063-068>070-272300-
   Twin Cities Metro

CITY           SKY/WX    TMP DP  RH WIND       PRES   REMARKS
TWIN CITIES    PTSUNNY   90  62  39 SE9       29.83F HX  90
ST PAUL        FAIR      87  64  46 S8        29.82F
CRYSTAL        FAIR      88  60  38 S7        29.81F
BLAINE         PTSUNNY   90  59  35 S7        29.83S
LAKEVILLE      FAIR      90  63  40 E9        29.83F HX  90
EDEN PRAIRIE   FAIR      90  59  35 E10       29.82F
SOUTH ST PAUL  FAIR      88  60  38 S3        29.82F
LAKE ELMO      FAIR      86  64  48 S6        29.84F
$$
MNZ001>005-007-008-013>017-022>024-027-028-272300-
   Northwest Minnesota

CITY           SKY/WX    TMP DP  RH WIND       PRES   REMARKS
BEMIDJI        FAIR      80  60  51 N8        29.85F
HALLOCK        FAIR      82  57  42 N3        29.81R
ROSEAU         FAIR      81  61  50 NE8       29.84F
WARROAD        FAIR      73  66  78 E7        29.85F
THIEF RVR FALL FAIR      82  58  43 NE8       29.84S
CROOKSTON      FAIR      82  59  44 NE7       29.82S
FOSSTON        FAIR      82  61  47 NE8       29.84S
DETROIT LAKES  FAIR      82  59  44 N5        29.82S
MOORHEAD       FAIR      81  64  57 NE16      29.79F
PARK RAPIDS    FAIR      80  62  54 N9        29.82R
MAHNOMEN       FAIR      79  65  60 NE10      29.82S
$$
MNZ006-009>011-018-025>026-272300-
   North Central Minnesota

CITY           SKY/WX    TMP DP  RH WIND       PRES   REMARKS
BAUDETTE         N/A    N/A N/A N/A MISG      29.84F
FLAG ISLAND    FAIR      73  63  68 CALM      29.84F
INTL FALLS     FAIR      79  60  52 NE5       29.84S
WASKISH        FAIR      82  61  47 CALM      29.84S
BIG FORK       FAIR      82  59  44 CALM      29.84R
LONGVILLE      FAIR      81  61  50 CALM      29.84R
GRAND RAPIDS   FAIR      80  61  52 N6        29.86S
ORR            FAIR      82  55  39 W5        29.82S
COOK           FAIR      82  55  39 NW3       29.84F
WALKER         FAIR      78  62  58 E3        29.83F HAZE
$$
MNZ012-019>021-037-272300-
   Northeast Minnesota

CITY           SKY/WX    TMP DP  RH WIND       PRES   REMARKS
DULUTH         FAIR      86  58  38 N7        29.83S
ELY            FAIR      84  48  28 SW5       29.84F
HIBBING        FAIR      83  58  42 NW6       29.83F
EVELETH        FAIR      84  57  39 NE7       29.85F
DULUTH HARBOR  FAIR      63  57  82 E10       29.81R
TWO HARBORS    FAIR      86  61  42 CALM      29.80S
SILVER BAY     FAIR      84  57  39 SE7       29.81R
GRAND MARAIS     N/A     43  40  89 SE3       29.83S
G MARAIS ARPRT FAIR      81  54  39 S5        29.87S
$$
MNZ029>031-032-039>041-046>048-054>057-064-272300-
   West Central Minnesota

CITY           SKY/WX    TMP DP  RH WIND       PRES   REMARKS
FERGUS FALLS   FAIR      90  57  33 S16       29.71F
MORRIS         CLOUDY    90  63  40 SE17      29.75F HX  90
ALEXANDRIA     FAIR      92  57  30 S18       29.81F HX  90
ELBOW LAKE     FAIR      89  60  37 SE16      29.77F
WADENA         FAIR      86  59  39 S15G25    29.79F
GLENWOOD       FAIR      88  57  35 SE13      29.81F
APPLETON       CLOUDY    95  54  24 SE16      29.74F HX  93
BENSON         CLOUDY    93  55  27 S8G21     29.77F HX  91
ORTONVILLE     SUNNY     97  59  28 SE9       29.73F HX  96
MADISON        MOSUNNY  100  54  20 SE16      29.73F HX  98
WILLMAR        FAIR      91  55  29 SE16G22   29.81F
$$
MNZ033>034-036-042>043-049>051-058-059-272300-
   Central Minnesota

CITY           SKY/WX    TMP DP  RH WIND       PRES   REMARKS
ST CLOUD       FAIR      90  53  28 S14       29.81F
SAUK CENTRE    FAIR      87  57  36 SE15      29.81F
PAYNESVILLE    FAIR      87  56  33 SE8       29.82F
AITKIN         FAIR      79  55  44 CALM      29.81R
PINE RIVER     FAIR      79  61  53 CALM      29.86R
BRAINERD       FAIR      83  62  49 S12       29.81F
STAPLES        FAIR      86  55  35 S12       29.80F
LONG PRAIRIE   FAIR      82  63  51 SE12      29.82F
LITTLE FALLS   FAIR      82  63  51 SE5       29.82F
LITCHFIELD     FAIR      90  55  31 SE15      29.81S
BUFFALO        FAIR      89  55  31 SE10G16   29.83F
MAPLE LAKE     FAIR      88  61  39 SE6       29.83F
HUTCHINSON     FAIR      89  62  41 E14       29.81F
$$
MNZ037-044-045-052-053-272300-
   East Central Minnesota

CITY           SKY/WX    TMP DP  RH WIND       PRES   REMARKS
PRINCETON      FAIR      90  57  33 SE8       29.82F
MORA           FAIR      81  59  47 CALM      29.85R
CAMBRIDGE      FAIR      90  64  43 S12       29.82F HX  91
RUSH CITY      FAIR      85  59  40 S7        29.83F
MOOSE LAKE     FAIR      82  59  44 S8        29.80R
HINCKLEY       FAIR      81  63  54 SW7       29.83F
CLOQUET        FAIR      86  48  26 CALM      29.83R
MCGREGOR       FAIR      84  57  39 SW5       29.84R
$$
MNZ071>073-080-081-089-090-097-098-272300-
   Southwest Minnesota

CITY           SKY/WX    TMP DP  RH WIND       PRES   REMARKS
MONTEVIDEO     CLOUDY    97  55  24 S23       29.75F HX  95
CANBY          SUNNY    100  50  18 SW9G16    29.76S HX  96
MARSHALL       SUNNY     99  59  26 SW15G21   29.76F HX  99
REDWOOD FALLS  CLOUDY    94  58  29 E16G23    29.76F HX  93
OLIVIA         MOSUNNY   95  57  28 SE20G25   29.77F HX  94
PIPESTONE      SUNNY     95  57  28 SW14G22   29.81F HX  94
WINDOM         CLOUDY    99  61  28 SE8       29.79F HX  99
WORTHINGTON    CLOUDY    99  56  23 SW10      29.82S HX  97
JACKSON        MOSUNNY   95  55  26 S8        29.82S HX  93
TRACY          CLOUDY    99  57  25 S8G18     29.77F HX  97
SLAYTON        MOSUNNY   99  55  23 SW14G23   29.82F HX  97
$$
MNZ065>067-074>077-082>085-091>093-272300-
   South Central Minnesota

CITY           SKY/WX    TMP DP  RH WIND       PRES   REMARKS
MANKATO        FAIR      96  54  24 E17       29.81F HX  94
NEW ULM        MOSUNNY   93  54  26 E12G20    29.79F HX  91
ST JAMES       CLOUDY    99  52  20 SE9       29.79F HX  96
FAIRMONT       MOSUNNY   98  55  23 SE7       29.80F HX  96
GLENCOE        FAIR      93  58  31 SE16      29.81F HX  92
FARIBAULT      FAIR      93  54  26 CALM      29.83F HX  91
OWATONNA       FAIR      95  57  28 E10G17    29.84S HX  94
WASECA         FAIR      95  54  24 SE10G16   29.84S HX  93
$$
MNZ078>079-086>088-094>096-272300-
   Southeast Minnesota

CITY           SKY/WX    TMP DP  RH WIND       PRES   REMARKS
ROCHESTER      FAIR      88  62  41 E9        29.87F
RED WING       FAIR      90  55  31 CALM      29.82F
STANTON        FAIR      91  62  38 E9        29.82F HX  91
DODGE CENTER   FAIR      93  48  21 CALM      29.86S HX  90
WINONA         FAIR      95  59  30 E6        29.83S HX  94
AUSTIN         FAIR      93  50  22 SE6       29.84F HX  90
PRESTON        FAIR      92  49  22 E8        29.87F
$$
ABBREVIATIONS USED IN REMARKS
   TC - TEMPERATURES IN CELSIUS
  WCI - WIND CHILL INDEX
   HX - HEAT INDEX
  VSB - VISIBILITY
$$




USA.gov is the U.S. government's official web portal to all federal, state and local government web resources and services.